Regional Weather Roundup
Issued by NWS

Home | Current Version | Previous Version | Text Only | Print | Product List | Glossary On
Versions: 1 2 3 4 5 6 7 8 9 10 11 12 13 14 15 16 17 18 19 20 21 22 23 24 25 26 27 28 29 30 31 32 33 34 35 36 37 38 39 40 41 42 43 44 45 46 47 48 49 50
000
ASUS43 KIND 291409
RWRIN

WEATHER ROUNDUP FOR INDIANA
NATIONAL WEATHER SERVICE INDIANAPOLIS IN
1000 AM EDT FRI JUL 29 2016

NOTE: "FAIR" INDICATES FEW OR NO CLOUDS BELOW 12,000 FEET WITH NO
SIGNIFICANT WEATHER AND/OR OBSTRUCTIONS TO VISIBILITY.

* - STATION DOES NOT REPORT WEATHER SUCH AS PRECIPITATION OR FOG.

+ - STATION NOT QUALITY CONTROLLED BY THE NATIONAL WEATHER SERVICE.
    USE DATA WITH CAUTION...ESPECIALLY DEWPOINT AND RELATIVE
    HUMIDITY OBSERVATIONS.

INZ001>003-010>013-019-020-291500-
NORTHWEST INDIANA

CITY           SKY/WX    TMP DP  RH WIND       PRES   REMARKS
GARY /AIRPORT/ PTSUNNY   77  73  88 CALM      29.92F
KNOX *+        SUNNY     73  66  78 S3        29.93S
LA PORTE +     SUNNY     76  75  94 SE5       29.94S
MICHIGAN CITY+ MOSUNNY   75  73  94 CALM      29.94R
MONTICELLO +   SUNNY     75  68  79 CALM      29.92R
RENSSELAER +   SUNNY     73  70  88 CALM      29.93S
VALPARAISO     SUNNY     76  69  79 E5        29.93S

$$

LMZ046-743>745-291500-
SOUTHERN LAKE MICHIGAN

STATION/POSITION TIME  TEMP    WIND        PRES    WAVE
                       AIR SEA DIR/SP/G            HT
                 (UTC) (F)     (DEG/KT/KT) (MB)    (FT)
BURNS HARBOR     1304   73      50/  4/  6 1013.9S
MICHIGAN CITY    1300   71      40/  3/  4   N/A
5NW MICH CITY    1400   73 77  100/  4/  6   N/A     1

$$

INZ004-005-014>016-021>024-291500-
NORTH CENTRAL INDIANA

CITY           SKY/WX    TMP DP  RH WIND       PRES   REMARKS
ELKHART        SUNNY     73  66  78 CALM      29.95S
GOSHEN         MOSUNNY   76  65  68 E7        29.94S
LOGANSPORT +   SUNNY     75  70  83 E3        29.93S
PERU/GRISSOM   SUNNY     77  70  80 CALM      29.92R
ROCHESTER +    SUNNY     79  72  78 SE3       29.93S
SOUTH BEND     SUNNY     74  68  81 SE7       29.94S
WARSAW +       SUNNY     73  68  83 SE6       29.94S

$$

INZ006>009-017-018-025>027-291500-
NORTHEAST INDIANA

CITY           SKY/WX    TMP DP  RH WIND       PRES   REMARKS
ANGOLA *+        N/A     75  66  73 E7        29.95S
AUBURN +       SUNNY     77  64  65 E6        29.95S
FORT WAYNE     SUNNY     76  68  76 SE7       29.94S
HUNTINGTON +   SUNNY     75  69  81 SE3       29.93S

$$

INZ028-029-035-036-043>045-051>053-291500-
WEST CENTRAL INDIANA

CITY           SKY/WX    TMP DP  RH WIND       PRES   REMARKS
CRAWFORDSVL +  FOG       70  70 100 S3        29.94R VSB 1/2
GREENCASTLE +  FOG       72  72 100 CALM      29.95R VSB 1/4
LAFAYETTE      SUNNY     76  73  91 S3        29.92R
TERRE HAUTE    SUNNY     76  71  85 CALM      29.94R

$$

INZ030>032-037>040-046>048-054>057-064-065-291500-
CENTRAL INDIANA

CITY           SKY/WX    TMP DP  RH WIND       PRES   REMARKS
ANDERSON       MOSUNNY   77  70  78 CALM      29.94S
COLUMBUS       MOSUNNY   73  73 100 CALM      29.95R
FISHERS *+     SUNNY     79  72  78 CALM      29.94S
INDIANAPOLIS   MOSUNNY   77  71  82 VRB3      29.94S
-EAGLE CREEK   SUNNY     79  70  74 CALM      29.93S
KOKOMO *+      SUNNY     79  68  69 CALM      29.93S
MARION +       SUNNY     75  69  82 CALM      29.94S
MT COMFORT *+  SUNNY     77  70  78 CALM      29.94S
SHELBYVILLE    SUNNY     76  70  82 S5        29.94S
ZIONSVILLE +   SUNNY     76  71  85 CALM      29.95R

$$

INZ033-034-041-042-049-050-058-059-291500-
EAST CENTRAL INDIANA

CITY           SKY/WX    TMP DP  RH WIND       PRES   REMARKS
MUNCIE         MOSUNNY   80  70  71 CALM      29.94S

$$

INZ060-061-067>069-081>083-085>088-291500-
SOUTHWEST INDIANA

CITY           SKY/WX    TMP DP  RH WIND       PRES   REMARKS
EVANSVILLE     MOSUNNY   77  71  82 SW3       29.95R
HUNTINGBURG *+ MOSUNNY   75  70  83 SW6       29.94S
WASHINGTON +   MOSUNNY   75  74  96 MISG      29.93S

$$

INZ062-063-066-070>080-084-089>092-291500-
SOUTH CENTRAL AND SOUTHEAST INDIANA

CITY           SKY/WX    TMP DP  RH WIND       PRES   REMARKS
BLOOMINGTON    SUNNY     77  70  79 S3        29.94S
MADISON *+     SUNNY     77  68  73 CALM      29.98R
NORTH VERNON + CLOUDY   N/A N/A N/A CALM      29.96R
SEYMOUR +      CLOUDY    73  73 100 CALM      29.95R

$$





USA.gov is the U.S. government's official web portal to all federal, state and local government web resources and services.